Broomfield, CO

1:42 AM MST on February 25, 2018 (GMT -0700)
Jeffco

Weather History for KBJC - May, 2013

Change the Weather History Date:

Sunday, May 19, 2013

  Actual Average Record
Temperature  
Mean Temperature 60 °F -  
Max Temperature 69 °F 69 °F 87 °F (2005)
Min Temperature 51 °F 45 °F 32 °F (2017)
Degree Days  
Heating Degree Days 5    
Growing Degree Days 10 (Base 50)    
Moisture  
Dew Point 29 °F    
Average Humidity 37    
Maximum Humidity 54    
Minimum Humidity 14    
Precipitation  
Precipitation 0.00 in - - ()
Sea Level Pressure  
Sea Level Pressure 29.85 in    
Wind  
Wind Speed 6 mph (WNW)    
Max Wind Speed 20 mph    
Max Gust Speed 26 mph    
Visibility 10 miles    
Events Rain , Thunderstorm    
Averages and records for this station are not official NWS values.
T = Trace of Precipitation, MM = Missing Value Source: NWS Daily Summary

Daily Weather History Graph

Daily Weather History Graph

Search for Another Location

Airport or City:

Trip Planner

Search our weather history database for the weather conditions in past years. The results will help you decide how hot, cold, wet, or windy it might be!

Date:

Astronomy

May. 19, 2013 Rise Set
Actual Time 5:41 AM MDT 8:12 PM MDT
Civil Twilight 5:10 AM MDT 8:43 PM MDT
Nautical Twilight 4:32 AM MDT 9:22 PM MDT
Astronomical Twilight 3:49 AM MDT 10:05 PM MDT
Moon 2:20 PM MDT (5/19) 2:06 AM MDT (5/19)
Length of Visible Light 15h 33m
Length of Day
14h 30m
Waxing Gibbous, 66% of the Moon is Illuminated
May 19
Waxing Gibbous
May 24
Full
May 31
Last Quarter
Jun 8
New
Jun 16
First Quarter

Hourly Weather History & Observations

Time (MDT) Temp. Dew Point Humidity Pressure Visibility Wind Dir Wind Speed Gust Speed Precip Events Conditions
12:15 AM 55.4 °F 33.8 °F 44% 29.89 in 10.0 mi Calm Calm - N/A   Clear
12:35 AM 53.6 °F 33.8 °F 47% 29.88 in 10.0 mi West 3.5 mph - N/A Thunderstorm Clear
12:54 AM 51.8 °F 35.6 °F 54% 29.88 in 10.0 mi WNW 8.1 mph - N/A Thunderstorm Clear
1:15 AM 53.6 °F 33.8 °F 47% 29.87 in 10.0 mi NNW 4.6 mph - N/A   Clear
1:35 AM 51.8 °F 33.8 °F 50% 29.88 in 10.0 mi West 4.6 mph - N/A   Clear
1:55 AM 51.8 °F 30.2 °F 44% 29.87 in 10.0 mi WNW 10.4 mph - N/A   Clear
2:15 AM 51.8 °F 30.2 °F 44% 29.88 in 10.0 mi Calm Calm - N/A   Clear
2:35 AM 51.8 °F 32.0 °F 47% 29.87 in 10.0 mi Calm Calm - N/A Thunderstorm Scattered Clouds
2:55 AM 51.8 °F 32.0 °F 47% 29.86 in 10.0 mi West 5.8 mph - N/A   Overcast
3:15 AM 51.8 °F 32.0 °F 47% 29.87 in 10.0 mi NW 4.6 mph - N/A   Scattered Clouds
3:35 AM 51.8 °F 32.0 °F 47% 29.86 in 10.0 mi WNW 5.8 mph - N/A   Scattered Clouds
3:55 AM 53.6 °F 28.4 °F 38% 29.86 in 10.0 mi NNW 5.8 mph - N/A   Mostly Cloudy
4:15 AM 51.8 °F 30.2 °F 44% 29.86 in 10.0 mi WSW 4.6 mph - N/A   Overcast
4:35 AM 51.8 °F 32.0 °F 47% 29.86 in 10.0 mi WNW 6.9 mph - N/A   Overcast
4:55 AM 53.6 °F 28.4 °F 38% 29.86 in 10.0 mi WNW 11.5 mph - N/A   Overcast
5:14 AM 53.6 °F 28.4 °F 38% 29.86 in 10.0 mi WNW 10.4 mph - N/A   Mostly Cloudy
5:35 AM 53.6 °F 28.4 °F 38% 29.86 in 10.0 mi NW 10.4 mph - N/A   Overcast
6:47 AM 55.4 °F 28.4 °F 36% 29.87 in 50.0 mi NW 4.6 mph - N/A   Mostly Cloudy
7:47 AM 57.2 °F 28.4 °F 33% 29.87 in 50.0 mi West 11.5 mph - N/A   Mostly Cloudy
8:47 AM 59.0 °F 24.8 °F 27% 29.86 in 50.0 mi West 8.1 mph - N/A   Mostly Cloudy
9:50 AM 62.6 °F 23.0 °F 22% 29.85 in 70.0 mi Calm Calm - N/A   Mostly Cloudy
10:46 AM 64.4 °F 23.0 °F 21% 29.83 in 70.0 mi WNW 8.1 mph 26.5 mph N/A   Mostly Cloudy
11:47 AM 66.2 °F 21.2 °F 18% 29.82 in 70.0 mi WSW 5.8 mph - N/A   Mostly Cloudy
12:47 PM 66.2 °F 19.4 °F 17% 29.80 in 50.0 mi West 3.5 mph - N/A   Mostly Cloudy
1:51 PM 66.2 °F 23.0 °F 19% 29.80 in 50.0 mi West 19.6 mph 24.2 mph N/A   Mostly Cloudy
2:50 PM 69.8 °F 17.6 °F 14% 29.80 in 50.0 mi NW 12.7 mph 23.0 mph N/A   Mostly Cloudy
3:48 PM 62.6 °F 24.8 °F 24% 29.80 in 50.0 mi SW 9.2 mph 12.7 mph N/A   Mostly Cloudy
4:47 PM 59.0 °F 32.0 °F 36% 29.83 in 35.0 mi SW 12.7 mph 18.4 mph N/A Rain Light Rain Showers
5:47 PM 64.4 °F 26.6 °F 24% 29.82 in 60.0 mi WNW 17.3 mph - N/A   Mostly Cloudy
6:47 PM 64.4 °F 26.6 °F 24% 29.82 in 60.0 mi West 13.8 mph 20.7 mph N/A   Mostly Cloudy
7:47 PM 59.0 °F 26.6 °F 29% 29.84 in 60.0 mi West 13.8 mph - N/A   Mostly Cloudy
8:46 PM 57.2 °F 26.6 °F 31% 29.86 in 30.0 mi WNW 11.5 mph 17.3 mph N/A   Mostly Cloudy
11:15 PM 53.6 °F 35.6 °F 51% 29.88 in 10.0 mi ESE 3.5 mph - N/A   Clear
11:34 PM 53.6 °F 33.8 °F 47% 29.88 in 10.0 mi WNW 8.1 mph - N/A   Clear
11:55 PM 51.8 °F 35.6 °F 54% 29.88 in 10.0 mi SSW 3.5 mph - N/A   Clear